Location: �chenoz-la-M�line
(47.6009°N, 6.1354°E)
Time: 04:12:16
(UTC+00:00)

FALCON 9 DEB - Pass Details

Date: 27 January 2021
Orbit: 376 x 391 km, 53.0° (Epoch: 27 February)

Event Time Altitude Azimuth Distance (km) Brightness Sun altitude
Exits shadow 05:29:04 20° 211° (SSW) 975 4.7 -16.6°
Maximum altitude 05:30:58 45° 145° (SE) 531 3.8 -16.3°
Drops below altitude 10° 05:34:00 10° 71° (ENE) 1,406 6.6 -15.8°
Sets 05:36:05 0° 65° (ENE) 2,259 7.7 -15.5°
